Location: Monteux
(44.0348°N, 4.9972°E)
Time: 18:21:40
(UTC+00:00)

Cosmos 1515 Rocket - Visible Passes

Search period start: 16 April 2021 00:00
Search period end: 26 April 2021 00:00
Orbit: 607 x 629 km, 82.5° (Epoch: 16 April)

Date Brightness Start Highest point End Pass type
(mag) Time Alt. Az. Time Alt. Az. Time Alt. Az.
16 Apr 5.9 00:36:13 22° N 00:36:13 22° N 00:37:50 10° N visible
16 Apr 6.4 23:15:56 12° NE 23:15:56 12° NE 23:16:19 10° NE visible
17 Apr 5.9 00:53:04 20° NNW 00:53:04 20° NNW 00:54:38 10° N visible
17 Apr 6.2 23:32:46 17° NNE 23:32:46 17° NNE 23:33:55 10° NNE visible
18 Apr 6.1 01:09:54 15° NW 01:09:54 15° NW 01:11:07 10° NNW visible
18 Apr 5.9 23:49:36 21° NNE 23:49:36 21° NNE 23:51:10 10° NNE visible
19 Apr 6.3 01:26:43 10° NW 01:26:43 10° NW 01:26:51 10° NW visible
20 Apr 5.8 00:06:25 23° N 00:06:25 23° N 00:08:12 10° N visible
20 Apr 6.3 22:46:06 13° NE 22:46:06 13° NE 22:46:44 10° NE visible
21 Apr 5.8 00:23:14 21° NNW 00:23:14 21° NNW 00:25:00 10° N visible
21 Apr 5.9 23:02:54 19° NNE 23:02:54 19° NNE 23:04:18 10° NNE visible
22 Apr 6.0 00:40:01 16° NW 00:40:01 16° NW 00:41:28 10° NNW visible
22 Apr 5.7 23:19:41 24° NNE 23:19:41 24° NNE 23:21:33 10° NNE visible
23 Apr 6.3 00:56:49 11° NW 00:56:49 11° NW 00:57:07 10° NW visible
23 Apr 5.6 23:36:28 27° N 23:36:28 27° N 23:38:34 10° N visible
24 Apr 6.0 22:16:06 15° NE 22:16:06 15° NE 22:17:07 10° NE visible
24 Apr 5.7 23:53:13 23° NNW 23:53:13 23° NNW 23:55:21 10° N visible
25 Apr 5.6 22:32:51 22° NE 22:32:51 22° NE 22:34:41 10° NNE visible
